Location: B?lite?ti
(46.2833°N, 22.7333°E)
Time: 17:22:46
(UTC+00:00)

Okean-O - Pass Details

Date: 24 January 2021
Orbit: 638 x 641 km, 98.2° (Epoch: 28 February)

Event Time Altitude Azimuth Distance (km) Brightness Sun altitude
Rises 16:26:19 0° 143° (SE) 2,936 5.8 -11.1°
Reaches altitude 10° 16:28:37 10° 136° (SE) 2,031 4.9 -11.5°
Maximum altitude 16:32:42 38° 69° (ENE) 991 3.1 -12.2°
Drops below altitude 10° 16:36:48 10° 1° (N) 2,045 5.1 -12.9°
Sets 16:39:08 0° 354° (N) 2,959 6.0 -13.3°
